{"data":{"norad_id":53273,"epoch":"2026-09-19T23:24:20.207232Z","epoch_age_seconds":120696,"freshness":"FRESH","line1":"1 53273U 22086AH  26262.97523388 -.00002442  00000+0 -61171-4 0  9994","line2":"2 53273  53.1616  16.5287 0001529 138.6306 221.4812 15.34396547230739","mean_motion":15.34396547,"eccentricity":0.0001529,"inclination_deg":53.1616,"raan_deg":16.5287,"arg_perigee_deg":138.6306,"mean_anomaly_deg":221.4812,"bstar":-6.1171e-5,"rev_number":23073,"period_min":93.847969275963,"perigee_km":461.66753722809,"apogee_km":463.75946931199,"semimajor_km":6840.85050327,"source":"CELESTRAK","updated_at":"2026-09-20T09:00:40.218278Z"}}